TimeHST,TemperatureF,Dew PointF,Humidity,Sea Level PressureIn,VisibilityMPH,Wind Direction,Wind SpeedMPH,Gust SpeedMPH,PrecipitationIn,Events,Conditions,WindDirDegrees,DateUTC
12:54 AM,75.0,68.0,79,30.00,10.0,NNE,9.2,-,N/A,,Clear,30,2013-10-07 10:54:00
1:54 AM,73.9,68.0,82,29.99,10.0,NNE,9.2,-,N/A,,Clear,20,2013-10-07 11:54:00
2:54 AM,73.9,68.0,82,29.98,10.0,NNE,8.1,-,N/A,,Scattered Clouds,20,2013-10-07 12:54:00
3:54 AM,75.0,66.9,76,29.98,10.0,NNE,11.5,-,N/A,,Clear,30,2013-10-07 13:54:00
4:54 AM,73.0,68.0,84,29.99,10.0,NE,5.8,-,N/A,,Clear,40,2013-10-07 14:54:00
5:54 AM,73.9,66.9,79,29.99,10.0,East,6.9,-,N/A,,Clear,100,2013-10-07 15:54:00
6:54 AM,72.0,66.0,81,30.01,10.0,North,4.6,-,N/A,,Partly Cloudy,10,2013-10-07 16:54:00
7:54 AM,79.0,66.0,64,30.02,10.0,Calm,Calm,-,N/A,,Partly Cloudy,0,2013-10-07 17:54:00
8:54 AM,82.9,66.0,56,30.03,10.0,North,8.1,-,N/A,,Clear,10,2013-10-07 18:54:00
9:54 AM,86.0,66.0,51,30.03,10.0,Variable,5.8,-,N/A,,Partly Cloudy,0,2013-10-07 19:54:00
10:54 AM,81.0,68.0,65,30.04,10.0,NNE,9.2,21.9,N/A,,Scattered Clouds,30,2013-10-07 20:54:00
11:54 AM,84.9,69.1,59,30.02,10.0,NE,17.3,24.2,N/A,,Scattered Clouds,50,2013-10-07 21:54:00
12:54 PM,84.0,69.1,61,30.01,10.0,NE,18.4,24.2,N/A,,Partly Cloudy,40,2013-10-07 22:54:00
1:54 PM,84.0,69.1,61,29.99,10.0,ENE,18.4,25.3,N/A,,Partly Cloudy,60,2013-10-07 23:54:00
2:54 PM,82.0,70.0,67,29.99,10.0,NE,12.7,27.6,N/A,,Partly Cloudy,40,2013-10-08 00:54:00
3:54 PM,82.0,69.1,65,29.99,10.0,NE,13.8,23.0,N/A,,Clear,50,2013-10-08 01:54:00
4:54 PM,80.1,69.1,69,30.00,10.0,NE,16.1,24.2,N/A,,Scattered Clouds,50,2013-10-08 02:54:00
5:54 PM,77.0,69.1,76,30.01,10.0,NE,12.7,23.0,N/A,,Clear,40,2013-10-08 03:54:00
6:54 PM,75.9,69.1,79,30.03,10.0,NE,10.4,21.9,N/A,,Clear,40,2013-10-08 04:54:00
7:54 PM,75.9,69.1,79,30.05,10.0,NE,12.7,19.6,N/A,,Clear,40,2013-10-08 05:54:00
8:54 PM,75.0,70.0,84,30.07,10.0,NNE,9.2,-,N/A,,Clear,30,2013-10-08 06:54:00
9:54 PM,73.9,69.1,85,30.08,10.0,North,4.6,-,N/A,,Clear,10,2013-10-08 07:54:00
10:54 PM,75.0,66.0,73,30.07,10.0,NNE,5.8,-,N/A,,Clear,30,2013-10-08 08:54:00
11:54 PM,73.0,64.0,73,30.06,10.0,East,4.6,-,N/A,,Clear,80,2013-10-08 09:54:00